Showing default

IRIDIUM 167, 43931

Orbit data source: Space-Track

IRIDIUM 167, 43931 is a payload satellite owned by Iridium (US) in LEO that was launched on Fri, 11 Jan 2019 UTC via an FALCON 9 launch vehicle from the Air Force Western Test Range (AFWTR). Payload-class satellites include a variety of spacecraft equipped with specific instruments for various scientific and technological missions. These include communications satellites like Starlink; space stations such as the ISS; scientific satellites like the Hubble; Earth observation satellites from companies like Planet Labs, Umbra, and HawkEye 360; GPS; miniature CubeSats for education and research; and military/defense satellites.

Loading next visibility...
Identifier
43931, 2019-002K
Orbit
LEO
Country
Flag of USUS
Related business
Manufacturer
NGIS SSG Gilbert
Mission
Operational Commercial Communications
Bus & Motor
ELITEBUS, Unknown motor
Mass
860 kg wet, 700 kg dry
Launch date (UTC)
2019-01-11 (7 years ago)
Launch vehicle
FALCON 9
Launch site
Air Force Western Test Range (AFWTR)
Object type
Payload
Rocket body
Debris
Shape & HBR
Trap Box + 2 Pan, 4.8 m
Radar Cross Section
10.154 m², Large (>1 m²)

Expand to show TLE details & history
Last TLE update: 13 hours ago

TLE from 13 hours ago
0 IRIDIUM 167
1 43931U 19002K   25302.84910695  .00000154  00000-0  47795-4 0  9992
2 43931  86.3929  89.8894 0001630  87.7880 272.3502 14.34217926355949
Epoch: 2025-10-29T20:22Z
TLE epoch observation values (Epoch: 2025-10-29T20:22:42.840Z)
Latitude
-0.00007°
Longitude
105.79455°
Altitude
780.67 km
Speed
7.464 km/s
True Right ascension
05h 59m 33s
True Declination
0° 00' 00"
Sunlit
Object was in full shadow at epoch
Visualization orbit readout
Latitude
Unknown
Longitude
Unknown
Altitude
Unknown
Speed
Unknown
Apparent Right ascension
Unknown
Apparent Declination
Unknown
Sunlit
N/A
Visualization observer readout
Local Sidereal Time
04:50:30
Azimuth
Unknown
Elevation
Unknown
Doppler factor
Unknown
Orbital elements
Apogee altitude
775.797 km
Perigee altitude
773.465 km
Semi-major axis
7,152.768 km
Eccentricity
0.00016
Inclination
86.3929°
RAAN
89.8894°
Arg. of periapsis
87.788°
True anomaly
272.33154°
Mean anomaly
272.3502°
Eccentric anomaly
272.34087°
Mean motion
3.58783 °/min
Orbital period
100.34 mins
BSTAR
0.000047795
Loading maneuver chart data...
Computing Atmospheric mass density...
Loading historical data...
Loading historical data...
Loading historical data...
Loading historical data...
Loading historical data...
Loading historical data...
Loading historical data...

Documentation

Showing up to 5 results
|